Погода в Слуцке

Погода в Слуцке : погода сейчас, прогноз погоды и архив. Всё, что Вы хотите узнать о погоде в Слуцке!

Хотите узнать прогноз погоды в Слуцке? Тогда Вам сюда: Погода в Слуцке

Поиск расширенной информации на нашем сайте:

Другие новости

Новости СМИ2

Главная страница сайта

Новости сайта

02.10.2013

Напоминаем, что на нашем новом сайте вы можете получить высокодетализированные прогнозы погоды по пунктам России, СНГ и мира (включающие важные для авиации метеовеличины, такие как направление и скорость ветра, видимость, явления погоды, количество и форма облачности, нижняя и верхняя граница облачности), а также ознакомиться с разнообразными материалами по авиационной метеорологии и подборкой полезных ссылок на эту тему.

Сайт Метеоцентр.Азия посвящён разработке технологий оптимизации авиаметеорологического обслуживания, включая проектирование и перспективное создание нескольких автоматизированных авиаметеорологических систем:
- система выпуска высокодетальных прогностических карт явлений погоды для нижнего воздушного пространства по России и ближнему зарубежью;
- система верификации прогнозов TAF (выпускаемых синоптиками официальных АМСГ РФ и ближнего зарубежья) и AUTOTAF (выпускаемых сайтом Метеоцентр.Азия) - выявление ошибок, онлайн-сопоставление с фактической погодой METAR, автоматическое внесение коррективов в прогнозы при резком отклонении фактической погоды от прогноза, подсчёт оправдываемости прогнозов по элементам и в целом;
- система обработки, анализа и отображения авиаметеорологической информации для применения провайдерами метеорологической информации.


Погода в Слуцке - сегодня

Время (UTC), дата Ветер
(°,м/с) 
Видим.   Явления Облачность Т
(°С)
Тd
(°С)
f(%) Тe
(°С)
Pmin
(гПа)
dP
(гПа)
Po
(мм)
O2
(г/м3)
Тmin Tmax R s Состояние
почвы
21 26.08.16 210 (ЮЗ) 12000 м    ясно 
+18.1 +12.2 68 +24  1024  754  282           
00 27.08.16 тихо ()   12000 м    ясно 
+15.4 +11.9 80 +19  1024.5  0.2  754  285           
03 27.08.16 210 (ЮЗ) 11000 м    ясно 
+13.7 +11.7 88 +18  1024.9  0.4  754  287           
06 27.08.16 240 (ЮЗ) 15000 м    3/0 верхняя 
[Ci fib]
+18.6 +12.5 68 +24  1024.2  -0.4  754  282  +12.5         
09 27.08.16 290 (З) 20000 м    ясно 
+26 +10 37 +27  1023.8  0.1  754  276           
12 27.08.16 270 (З) 20000 м    ясно 
+28.8 +11 33 +31  1022.4  -1.3  753  272           
15 27.08.16 270 (З) 19000 м    ясно 
+28.8 +11 33 +31  1020.5  -1.8  752  272           
18 27.08.16 230 (ЮЗ) 5000 м  мгла  ясно 
+22.8 +13.3 55 +29  1020.2  -0.7  751  277    +29.7       
21 27.08.16 220 (ЮЗ) 8000 м  мгла  ясно 
+18.8 +13.1 69 +26  1020.4  751  281           
00 28.08.16 240 (ЮЗ) 11000 м    ясно 
+16.2 +13.1 82 +24  1020.4  -0.2  751  283           
03 28.08.16 230 (ЮЗ) 11000 м    ясно 
+14.5 +12.5 88 +20  1020.8  0.3  751  285           
06 28.08.16 тихо ()   19000 м    ясно 
+19.3 +14.5 74 +27  1020.7  0.3  751  280  +13.1         
09 28.08.16 300 (СЗ) 23000 м    ясно 
+27.1 +15.3 48 +36  1020.3  0.1  751  272           
12 28.08.16 230 (ЮЗ) 22000 м    ясно 
+30 +13.5 36 +36  1019  -1.2  751  270           
15 28.08.16 240 (ЮЗ) 22000 м    ясно 
+30 +13.7 37 +37  1017.3  -1.7  749  269           
18 28.08.16 тихо ()   14000 м    3/3 600 м 
[Sc diur, vesp]
+24.1 +16.6 63 +36  1017.1  -0.6  749  274    +30.9       
21 28.08.16 190 (Ю) 14000 м    ясно 
+21.2 +14.2 64 +29  1017.1  -0.2  749  277           
00 29.08.16 180 (Ю) 12000 м    ясно 
+19.8 +13.7 68 +28  1015.9  -1.1  748  278           
03 29.08.16 190 (Ю) 10 км    ясно 
+17.4 +13.5 78 +25  1014.8  -1.3  747  280           
06 29.08.16 220 (ЮЗ) 10 км    1/0 верхняя 
[Ci sp]
+21.2 +12.8 59 +26  1014.2  -0.4  747  277  +14.7         
09 29.08.16 240 (ЮЗ) 13000 м    ясно 
+29.3 +13.8 39 +36  1012.6  -1  746  269           
12 29.08.16 250 (З) 7-10{12}  15000 м    ясно 
+31 +12 31 +35  1011.6  -1  745  267           
15 29.08.16 250 (З) 7{11}  16000 м    1/1 1000 м 
[Cu hum]
+30.6 +11.5 31 +34  1010.4  -1.1  744  268           
18 29.08.16 260 (З) 10 км    5/0 верхняя 
[Cs]
+23.7 +15.1 59 +33  1010.8  744  273    +32.2       
21 29.08.16 250 (З) 13000 м    ясно 
+21.7 +15.1 66 +31  1011.6  0.6  745  275           
Время (UTC), дата Ветер
(°,м/с) 
Видим.   Явления Облачность Т
(°С)
Тd
(°С)
f(%) Тe
(°С)
Pmin
(гПа)
dP
(гПа)
Po
(мм)
O2
(г/м3)
Тmin Tmax R s Состояние
почвы

Для получения пояснительной информации подведите курсор к названию столбца.

ПОГОДА в Слуцке - архив

Всё, что Вы хотите узнать о погоде в Слуцке - удобно и подробно!

Выберите нужную дату (начиная с 1 января 2015* года) и нажмите кнопку "Найти".
Будут отображены архивные сводки погоды по пункту Слуцк, начиная с указанной даты.


Отображать данные в формате CSV (для использования в таблицах Excel)


Внимание! Наш архив погоды предназначен исключительно для личного некоммерческого использования в познавательных целях. Если Вам необходимы официальные справки о состоянии погоды (для производственных, юридических, коммерческих и т.п. целей), обращайтесь в органы Росгидромета.

*Примечание: данная дата относится к архиву по метеостанциям СССР (Россия, СНГ, Балтия).
Архив по метеостанциям Зарубежной Европы и Азии (кроме Китая) хранится 10 дней, по другим регионам земного шара (Китай, Африка, Америка, Австралия, Океания) - 1 день.

Слуцк - район местоположения метеостанции


Название, широта, долгота, высота метеостанции:
Слуцк 53°ш. 27.6°д. 162 м над ур. моря [Беларусь]

Дополнительная информация

В oтличие oт бoльшинства пoгoдных сайтoв мы публикуем пoдрoбную метеoинфoрмацию в детальнoм прoфессиoнальнoм фoрмате.

Характеристики температуры и влажнoсти вoздуха измеряются на высoте 2 м в тени вдали oт зданий и деревьев.
Скoрoсть ветра измеряется на высoте 10 м (на урoвне рoста челoвека скoрoсть ветра ниже в 1.5-2 раза). Если метеoстанция нахoдится в гoрoде или в лесу, тo скoрoсть ветра занижена на 2-4 м/с пo сравнению с oткрытым местoм. Скoрoсть ветра над акватoриями крупных рек и oзёр, а также на вершинах хoлмoв на 2-5 м/с выше, чем в oбычных услoвиях.
Атмoсфернoе давление в разных тoчках местнoсти мoжет значительнo oтличаться oт давления на метеoстанции, в зависимoсти oт услoвий рельефа (при пoдъёме на 10 м давление пoнижается примернo на 1 мм рт.ст.).